Hourly Data Report for September 30, 2017

All times are specified in Local Standard Time (LST). Add 1 hour to adjust for Daylight Saving Time where and when it is observed.

EAST POINT (AUT)
PRINCE EDWARD ISLAND

46°27'36.000" N
61°59'18.000" W
7.70 m
8300418
71412
WEP

Download Data

Hourly Data (September 2017)
Hourly Data Report for September 30, 2017
Temp Definition
°C
Dew Point Temp Definition
°C
Rel Hum Definition
%
Wind Dir Definition
10's deg

Wind Spd Definition
km/h
Visibility Definition
km
Stn Press Definition
kPa
Hmdx Definition


Wind Chill Definition


Weather Definition


TIME
00:00 12.0 8.6 79 2 33   101.43     LegendNANA
01:00 12.1 8.0 76 1 33   101.50     LegendNANA
02:00 11.6 8.2 79 36 36   101.54     LegendNANA
03:00 12.1 6.9 71 36 29   101.59     LegendNANA
04:00 11.7 7.5 76 36 33   101.64     LegendNANA
05:00 11.7 6.1 69 36 26   101.72     LegendNANA
06:00 11.7 6.3 70 1 28   101.81     LegendNANA
07:00 11.6 6.4 70 1 29   101.90     LegendNANA
08:00 10.9 5.9 71 36 29   101.98     LegendNANA
09:00 11.2 3.8 60 36 27   102.06     LegendNANA
10:00 10.8 3.7 62 34 24   102.11     LegendNANA
11:00 11.0 3.4 59 34 22   102.16     LegendNANA
12:00 10.3 3.2 61 34 23   102.19     LegendNANA
13:00 11.2 4.0 61 33 22   102.18     LegendNANA
14:00 10.4 3.0 60 34 20   102.18     LegendNANA
15:00 10.1 3.4 63 33 19   102.19     LegendNANA
16:00 10.2 2.7 60 32 22   102.18     LegendNANA
17:00 9.9 2.4 60 33 19   102.19     LegendNANA
18:00 9.5 1.7 58 32 16   102.23     LegendNANA
19:00 9.6 1.8 58 32 14   102.27     LegendNANA
20:00 9.1 1.4 59 32 13   102.30     LegendNANA
21:00 7.4 3.2 75 24 10   102.31     LegendNANA
22:00 6.1 2.6 78 23 9   102.28     LegendNANA
23:00 5.7 2.2 78 23 8   102.25     LegendNANA

Notes on Data Quality.

Legend

  • E = Estimated
  • M = Missing
  • NA = Not Available
  • ‡ = Partner data that is not subject to review by the National Climate Archives
Date modified: